ジャクソン-ニェウイミン彗星

58P/Jackson-Neujmin (2020)

English version
Home page
Updated on August 15, 2020

---------------------------------------------------------------------

・ プロフィール

・ 写真集

・ 軌道要素

Epoch 2020 May 31.0 TT = JDT 2459000.5                                          
T 2020 May 27.45051 TT                                  Williams                    
q   1.3774842            (2000.0)            P               Q                  
n   0.11946848     Peri.  200.45804     +0.99671712     -0.00069200             
a   4.0828851      Node   159.08233     +0.01636408     +0.98104716             
e   0.6626199      Incl.   13.10650     -0.07929184     +0.19376789             
P   8.25                                                                        
From 326 observations 1987 July 25-2020 Apr. 8, mean residual 0".8.             
     Nongravitational parameters A1 = -0.38, A2 = +0.2178.                      

・ 星図

・ 光度変化

        m1 = 5.5 + 5 logΔ + 25.0 log r(t + 20)

---------------------------------------------------------------------

軌道要素はM.P.E.C. 2020-G76に掲載されたものです。
星図はステラナビゲータ Ver.8 (アストロアーツ) で作成したものです。
光度グラフはComet for Windowsで作成したものです。

---------------------------------------------------------------------

Copyright(C) Seiichi Yoshida (comet@aerith.net). All rights reserved.